Preview of NWS' New Version of Forecast
This preview is not operational and should not be used for support decisions.

Terminal Aerodrome Forecast (TAF)

Issued by National Weather Service (NWS)

                            
000
FTUS42 KKEY 151145
TAFMTH
TAF
KMTH 151145Z 1512/1612 09010KT P6SM FEW025
     FM151500 09011G18KT P6SM FEW025 SCT050
     FM160200 10011KT P6SM FEW020=